Skip Page Navigation
NASA JPL Caltech
NASA Logo - Jet Propulsion Laboratory + View the NASA Portal
+ Center for Near-Earth Object Studies
JPL Home Earth Solar System Stars & Galaxies Technology
JPL Solar System Dynamics
BODIES ORBITS EPHEMERIDES TOOLS PHYSICAL DATA DISCOVERY FAQ SITE MAP
IMPORTANT: The SSD Announcement email list is now available. Major changes are coming in the near future, including possible hostname and/or URL changes. To be notified of such changes, subscribe to this email list.

Please visit this page for more details.


JPL Small-Body Database Browser
Search: [ help ]  
413633 (2005 UC388)
Classification: Main-belt Asteroid          SPK-ID: 2413633
Ephemeris | Orbit Diagram | Orbital Elements | Mission Design | Physical Parameters | Discovery Circumstances ]

[ show orbit diagram ]
Orbital Elements at Epoch 2459000.5 (2020-May-31.0) TDB
Reference: JPL 18 (heliocentric ecliptic J2000)
 Element Value Uncertainty (1-sigma)   Units 
e .06896069516641981 5.6528e-08  
a 2.730646343443146 3.2777e-08 au
q 2.542339073345664 1.6073e-07 au
i 6.447444438452896 6.5731e-06 deg
node 53.08430739943564 5.1953e-05 deg
peri 7.275982692348276 7.1519e-05 deg
M 62.275576693013 5.0921e-05 deg
tp 2458715.390381497494
(2019-Aug-19.89038150)
0.00023079 TDB
period 1648.149533273095
4.51
2.9675e-05
8.125e-08
d
yr
n .2184267827234514 3.9328e-09 deg/d
Q 2.918953613540628 3.5038e-08 au
  Orbit Determination Parameters
   # obs. used (total)      156  
   data-arc span      6091 days (16.68 yr)  
   first obs. used      2003-05-02  
   last obs. used      2020-01-04  
   planetary ephem.      DE431  
   SB-pert. ephem.      SB431-N16  
   condition code      0  
   norm. resid. RMS      .54148  
   source      ORB  
   producer      Otto Matic  
   solution date      2020-Jan-30 10:36:06  

Additional Information
 Earth MOID = 1.55484 au 
 Jupiter MOID = 2.32112 au 
 T_jup = 3.342 
[ show covariance matrix ]

Ephemeris | Orbit Diagram | Orbital Elements | Mission Design | Physical Parameters | Discovery Circumstances ]

Physical Parameter Table
Parameter Symbol Value Units Sigma Reference Notes
absolute magnitude H 16.5   n/a MPO455945  

413633 (2005 UC388)          Discovered 2005-Oct-26 by Spacewatch at Kitt Peak
Reference: Last Updated: 2014-11-10
Ephemeris | Orbit Diagram | Orbital Elements | Mission Design | Physical Parameters | Discovery Circumstances ]
ABOUT SSD CREDITS/AWARDS PRIVACY/COPYRIGHT GLOSSARY LINKS
FirstGov 2020-Jun-04 12:46 UT
(server date/time)  
NASA Home Page
Site Manager:   Ryan S. Park
Webmaster  Alan B. Chamberlin